Regional Weather Roundup
Issued by NWS

Home | Current Version | Previous Version | Text Only | Print | Product List | Glossary On
Versions: 1 2 3 4 5 6 7 8 9 10 11 12 13 14 15 16 17 18 19 20 21 22 23 24 25 26 27 28 29 30 31 32 33 34 35 36 37 38 39 40 41 42 43 44 45 46 47 48 49 50
954
ASUS46 KSTO 210315
RWRCA

NORTHERN AND CENTRAL CA REGIONAL WEATHER ROUNDUP
NATIONAL WEATHER SERVICE SACRAMENTO CA
800 PM PDT FRI OCT 20 2017

NOTE: FAIR INDICATES FEW OR NO CLOUDS BELOW 12,000 FEET WITH NO
SIGNIFICANT WEATHER AND/OR OBSTRUCTIONS TO VISIBILITY.

CAZ001-003-210400-
NORTHWEST AREA

CITY           SKY/WX    TMP DP  RH WIND       PRES   REMARKS
CRESCENT CITY  CLOUDY    51  47  86 SE8       30.13F
UKIAH          PTCLDY    54  41  61 N7        30.15R
$$

CAZ006-505>513-210400-
BAY AREA

CITY           SKY/WX    TMP DP  RH WIND       PRES   REMARKS
SANTA ROSA     PTCLDY    55  45  68 CALM      30.12R
SAN RAFAEL     N/A       56  MM  MM MISG
NAPA           PTCLDY    54  47  77 W14       30.11S
CONCORD        CLEAR     59  45  59 W5        30.13R
OAKLAND CITY   N/A      MM  MM  MM MISG
OAKLAND        PTCLDY    56  50  80 W15       30.14R
SAN FRAN CITY  N/A       55  MM  79 MISG
SAN FRAN ARPT  PTCLDY    57  48  72 W21       30.13S
LIVERMORE      CLEAR     53  47  79 SW6       30.11S
HAYWARD        CLEAR     57  46  66 W10       30.13S
REDWOOD CITY   N/A       55  MM  70 MISG
MOFFETT ARPT   CLEAR     57  45  64 NW3       30.15R
SAN JOSE ARPT  PTCLDY    57  45  64 NW12      30.14R
$$
CAZ034-037-514>518-210400-
CENTRAL COAST

CITY           SKY/WX    TMP DP  RH WIND       PRES   REMARKS
WATSONVILLE    CLEAR     54  47  77 W8        30.12R
SALINAS        MOCLDY    56  49  77 S8        30.13R
MONTEREY       CLEAR     56  49  77 W13       30.14R
SAN LUIS OBISP CLEAR     57  50  77 NW9       30.06R
SANTA MARIA    CLEAR     55  49  80 NW9       30.06R
$$
CAZ015-016-210400-
NORTHERN SACRAMENTO VALLEY

CITY           SKY/WX    TMP DP  RH WIND       PRES   REMARKS
REDDING        PTCLDY    54  39  57 NW5       30.10R
RED BLUFF      PTCLDY    54  45  71 NW5       30.11R
OROVILLE       PTCLDY    55  48  77 E3        30.11R
$$
CAZ016>018-210400-
SOUTHERN SACRAMENTO VALLEY

CITY           SKY/WX    TMP DP  RH WIND       PRES   REMARKS
AUBURN         CLEAR     48  45  87 E3        30.11R
BEALE AFB      CLEAR     53  47  77 E5        30.09R
LINCOLN        FAIR      46  45  93 E7        30.09S
MARYSVILLE     CLEAR     53  47  79 E5        30.10R
SAC INTL ARPT  PTCLDY    57  46  66 CALM      30.09R
MATHER AIRPORT CLEAR     54  45  71 E7        30.09R
DOWNTOWN SAC   N/A       54  MM  MM MISG
SAC EXEC ARPT  CLEAR     52  47  83 CALM      30.09R
VACAVILLE      CLEAR     58  47  66 CALM      30.11R
TRAVIS AFB     CLEAR     55  47  74 W9        30.08S
$$
CAZ019>021-210400-
SAN JOAQUIN VALLEY

CITY           SKY/WX    TMP DP  RH WIND       PRES   REMARKS
STOCKTON       CLEAR     56  46  69 NW10      30.09S
MODESTO        CLEAR     58  46  64 NW12      30.08R
MERCED         CLEAR     56  43  61 NW9       30.07R
LEMOORE        PTCLDY   N/A N/A N/A N12       30.07R
FRESNO         PTCLDY    58  42  55 NW15      30.06R
HANFORD        PTCLDY    58  45  62 NW7       30.06R
PORTERVILLE    PTCLDY    56  42  59 N5        30.05R
BAKERSFIELD    PTCLDY    57  42  57 NW5       30.05R
$$
CAZ011-012-071-210400-
NORTHERN MOUNTAINS

CITY           SKY/WX    TMP DP  RH WIND       PRES   REMARKS
YREKA          PTCLDY    44  33  65 W12       30.11R
MOUNT SHASTA   CLEAR     39  30  70 CALM      30.08R
ALTURAS        MOCLDY    33  32  96 SE5       30.09R WCI  29
$$
CAZ011-012-071-210400-
SIERRA NEVADA MTNS

CITY           SKY/WX    TMP DP  RH WIND       PRES   REMARKS
BLUE CANYON    CLOUDY    35  34  96 CALM      30.11S
TRUCKEE        MOCLDY    32  28  86 CALM      30.11R
TAHOE VLY ARPT PTCLDY    34  29  82 CALM      30.08R
MAMMOTH LAKES  FAIR      38  23  55 W13       30.05R WCI  30
$$




USA.gov is the U.S. government's official web portal to all federal, state and local government web resources and services.